Flag for Canada Weather past 2 weeks in Nanaimo, British Columbia, Canada

Now
47 °F

Cool.


Feels Like: 41 °F
Forecast: 48 / 55 °F
Wind: 16 mph from Southeast

Location: Entrance Island

Current Time: Mar 29, 2015 at 9:22:45 PM

Latest Report: Mar 29, 2015 at 8:00 PM


Visibility: N/A

Pressure: 30.12 "Hg

Humidity: 95%

Dew point: 46 °F

Location of NanaimoLocation

Historic Weather in Nanaimo — Graph

°F

Nanaimo temperature yesterday

Maximum temperature yesterday: 55 °F (at 12:00 AM)
Minimum temperature yesterday: 47 °F (at 7:00 AM)
Average temperature yesterday: 51 °F

Past Weeks' High & Low Weather Summary

 TemperatureHumidityPressure
High58 °F (Mar 27, 7:00 PM)98% (Mar 18, 6:00 AM)30.30 "Hg (Mar 18, 6:00 AM)
Low42 °F (Mar 17, 8:00 AM)55% (Mar 16, 1:00 AM)29.75 "Hg (Mar 15, 2:00 PM)
Average48 °F83%30.09 "Hg
* Reported Mar 14 8:00 PM — Mar 29 8:00 PM, Nanaimo, Weather by CustomWeather, © 2015

Note: Actual official high and low records may vary slightly from our data, if they occured in-between our weather recording intervals... More about our weather records

Advertising

Nanaimo weather history for previous 24 hours

 ConditionsComfort  
Time TempWeatherWind HumidityBarometerVisibility
8:00 PM
Sun, Mar 29
47 °FCool.16 mph95%30.12 "HgN/A
7:00 PM49 °FCool.16 mph88%30.14 "HgN/A
6:00 PM49 °FCool.15 mph88%30.15 "HgN/A
5:00 PM49 °FCool.18 mph89%30.15 "HgN/A
4:00 PM49 °FCool.16 mph89%30.16 "HgN/A
3:00 PM49 °FCool.20 mph90%30.16 "HgN/A
2:00 PM49 °FCool.18 mph90%30.17 "HgN/A
1:00 PM49 °FCool.21 mph89%30.15 "HgN/A
12:00 PM49 °FCool.22 mph88%30.14 "HgN/A
11:00 AM49 °FCool.22 mph88%30.14 "HgN/A
10:00 AM49 °FCool.26 mph87%30.11 "HgN/A
9:00 AM48 °FCool.30 mph89%30.10 "HgN/A
8:00 AM49 °FCool.31 mph85%30.10 "HgN/A
7:00 AM49 °FCool.30 mph86%30.11 "HgN/A
6:00 AM47 °FCool.28 mph89%30.13 "HgN/A
5:00 AM49 °FCool.29 mph83%30.14 "HgN/A
4:00 AM49 °FCool.28 mph85%30.15 "HgN/A
3:00 AM49 °FCool.23 mph87%30.19 "HgN/A
2:00 AM49 °FCool.22 mph88%30.20 "HgN/A
1:00 AM49 °FCool.21 mph89%30.22 "HgN/A
12:00 AM47 °FCool.24 mph95%30.23 "HgN/A
11:00 PM
Sat, Mar 28
49 °FCool.20 mph88%30.24 "HgN/A
10:00 PM50 °FCool.16 mph85%30.25 "HgN/A
9:00 PM51 °FCool.15 mph71%30.25 "HgN/A
Weather by CustomWeather, © 2015

See weather overviewHow to use our weather pages